This is the latest recevied weather packets stored in our database for station/object NR5ON-13. If no packets are shown the sender has not sent any weather packets the latest 10 day(s).
| Time | Temp. | Humidity | Pressure | Rain* | Wind** | Luminosity | Snow |
|---|---|---|---|---|---|---|---|
| 1788573821 | 21.11° C | 60% | 1024.3 hPa | 0 mm | - | - | - |
| 1788573529 | 21.11° C | 59% | 1024.4 hPa | 0 mm | - | - | - |
| 1788573220 | 21.11° C | 59% | 1024.3 hPa | 0 mm | - | - | - |
| 1788572927 | 21.11° C | 59% | 1024.3 hPa | 0 mm | - | - | - |
| 1788572616 | 21.11° C | 59% | 1024.4 hPa | 0 mm | - | - | - |
| 1788572324 | 21.11° C | 59% | 1024.5 hPa | 0 mm | - | - | - |
| 1788572016 | 21.11° C | 59% | 1024.5 hPa | 0 mm | - | - | - |
| 1788571724 | 21.11° C | 59% | 1024.3 hPa | 0 mm | - | - | - |
| 1788571432 | 21.11° C | 60% | 1024.3 hPa | 0 mm | - | - | - |
| 1788571120 | 21.11° C | 59% | 1024.3 hPa | 0 mm | - | - | - |
| 1788570827 | 21.11° C | 59% | 1024.3 hPa | 0 mm | - | - | - |
| 1788570519 | 21.11° C | 60% | 1024.3 hPa | 0 mm | - | - | - |
| 1788570227 | 21.67° C | 59% | 1024.4 hPa | 0 mm | - | - | - |
| 1788569916 | 22.22° C | 56% | 1024.4 hPa | 0 mm | - | - | - |
| 1788569623 | 23.33° C | 51% | 1024.3 hPa | 0 mm | - | - | - |
| 1788569330 | 25° C | 46% | 1024 hPa | 0 mm | - | - | - |
| 1788569018 | 25.56° C | 39% | 1023.3 hPa | 0 mm | - | - | - |
| 1788568726 | 25.56° C | 38% | 1023.2 hPa | 0 mm | - | - | - |
| 1788568434 | 25.56° C | 38% | 1023.2 hPa | 0 mm | - | - | - |
| 1788568121 | 26.11° C | 37% | 1023.1 hPa | 0 mm | - | - | - |
| 1788567832 | 26.11° C | 36% | 1023.2 hPa | 0 mm | - | - | - |
| 1788567519 | 26.11° C | 35% | 1023.1 hPa | 0 mm | - | - | - |
| 1788567262 | 26.11° C | 36% | 1023.1 hPa | 0 mm | - | - | - |
| 1788566915 | 26.11° C | 36% | 1023 hPa | 0 mm | - | - | - |
| 1788566623 | 26.11° C | 36% | 1022.9 hPa | 0 mm | - | - | - |
* Rain latest hour (hover to see other rain measurements)
** Current wind speed in m/s (hover to see current wind gust speed)